Weather Roundup
Issued by NWS Springfield, MO

Home | Current Version | Previous Version | Text Only | Print | Product List | Glossary On
Versions: 1 2 3 4 5 6 7 8 9 10 11 12 13 14 15 16 17 18 19 20 21 22 23 24 25 26 27 28 29 30 31 32 33 34 35 36 37 38 39 40 41 42 43 44 45 46 47 48 49 50
000
NZUS99 KSGF 022307
HRRSGF

HOURLY WEATHER
NATIONAL WEATHER SERVICE SPRINGFIELD MO
600 PM CDT SUN AUG 02 2015

......SGF CWA......

CITY           SKY/WX    TMP DP  RH WIND       PRES   REMARKS
SPRINGFIELD    MOSUNNY   90  63  40 SW10      29.92F HX  91
JOPLIN         SUNNY     92  59  33 SW15G21   29.92S HX  91
WEST PLAINS    MOSUNNY   88  66  48 SW5       29.95F HX  90
ROLLA          SUNNY     89  66  46 W8        29.90S HX  91
OSAGE BEACH    SUNNY     91  66  43 SW5       29.89F HX  94
BRANSON        MOSUNNY   90  63  40 W5        29.95F HX  90

......SURROUNDING SGF CWA......

CITY           SKY/WX    TMP DP  RH WIND       PRES   REMARKS
CHANUTE        SUNNY     91  63  39 SW12G21   29.89F HX  92
PARSONS        SUNNY     91  65  41 SW10      29.91S HX  93
COFFEYVILLE    MOSUNNY   92  66  42 S13G20    29.89S HX  94
EMPORIA        SUNNY     90  70  51 SW12      29.88F HX  95
GROVE OK       SUNNY     91  63  38 SW13      29.93S HX  92
ROGERS AR      MOSUNNY   89  62  40 W6        29.96F
SILOAM SPRINGS SUNNY     90  63  40 SW9       29.94S HX  90
HARRISON AR    SUNNY     89  65  44 W6        29.95F HX  91
NEAR YELLVILLE MOSUNNY   91  63  38 W5        29.90F HX  92

......KANSAS AND MISSOURI......

CITY           SKY/WX    TMP DP  RH WIND       PRES   REMARKS
KANSAS CTY INT MOSUNNY   89  72  56 SW7       29.85S HX  96
DOWNTOWN KC    SUNNY     93  68  43 W8        29.83F HX  97
COLUMBIA       SUNNY     88  70  55 SW14      29.88F HX  93
SEDALIA        SUNNY     90  67  46 SW9       29.88F HX  93
ST JOSEPH        N/A     89  74  60 SW8       29.83F HX  98
ST LOUIS       PTSUNNY   93  68  43 W12       29.86F HX  97
SPIRIT OF STL  SUNNY     91  70  49 W7        29.85S HX  96
KIRKSVILLE     SUNNY     88  71  57 SW7       29.83F HX  94
WICHITA        MOSUNNY   90  68  48 S9        29.88F HX  94
TOPEKA         SUNNY     92  70  48 SW8       29.84F HX  97
OLATHE         SUNNY     91  66  43 SW10      29.85F HX  93

......TENNESSEE......

CITY           SKY/WX    TMP DP  RH WIND       PRES   REMARKS
MEMPHIS        PTSUNNY   89  70  53 S9G18     29.91F HX  94
NASHVILLE      MOSUNNY   88  51  28 CALM      29.93F

......ARKANSAS.......

CITY           SKY/WX    TMP DP  RH WIND       PRES   REMARKS
FAYETTEVILLE   SUNNY     87  64  46 SW7       29.95F
FT SMITH       PTSUNNY   93  60  33 E3        29.88F HX  93
LITTLE ROCK    MOSUNNY   94  65  38 SE10      29.88F HX  96

......OKLAHOMA.......

CITY           SKY/WX    TMP DP  RH WIND       PRES   REMARKS
TULSA          PTSUNNY   90  67  46 SW6       29.89F HX  93
PONCA CITY     SUNNY     90  65  43 S6        29.88F HX  92
MCALESTER      SUNNY     94  57  28 VRB6      29.90F HX  92
OKLAHOMA CITY  MOSUNNY   88  68  51 S14       29.91F HX  91

......IOWA............

CITY           SKY/WX    TMP DP  RH WIND       PRES   REMARKS
DES MOINES     PTSUNNY   79  65  62 SW23G39   29.77R THUNDER
QUAD CITIES    SUNNY     90  73  57 SW15G24   29.72F HX  98

......ILLINOIS........

CITY           SKY/WX    TMP DP  RH WIND       PRES   REMARKS
QUINCY         SUNNY     88  73  61 SW13      29.81F HX  95
CHICAGO        MOSUNNY   89  69  51 SW16G32   29.65F HX  93




USA.gov is the U.S. government's official web portal to all federal, state and local government web resources and services.